Tracking 21970 objects as of 25-Nov-2020
HD Live streaming from Space Station
objects crossing your sky now

COSMOS 1124 DEB

Track COSMOS 1124 DEB now!


NORAD ID: 12814
Int'l Code: 1979-077E
Perigee: 4,091.3 km
Apogee: 35,705.3 km
Inclination: 67.1 °
Period: 706.2 minutes
Semi major axis: 26269 km
RCS: 0.3664 m2 (medium)
Launch date: August 28, 1979
Source: Commonwealth of Independent States (former USSR) (CIS)
Launch site: PLESETSK MISSILE AND SPACE COMPLEX (PKMTR)

Note: This is SATELLITE DEBRIS
aabbcc
Your satellite tracking list
Your tracking list is empty




NASA's NSSDC Master Catalog

Two Line Element Set (TLE):
1 12814U 79077E   13280.37641878 -.00000236 +00000-0 +00000-0 0  9996
2 12814 067.1180 037.3333 6017304 080.9227 355.3336 02.03906270159082
Source of the keplerian elements: AFSPC